Location: Obersdorf
(47.4079°N, 10.2781°E)
Time: 22:19:31
(UTC+01:00)

AO-109 - Pass Details

Date: 07 December 2021
Orbit: 479 x 515 km, 60.7° (Epoch: 27 January)

Event Time Altitude Azimuth Distance (km) Brightness Sun altitude
Exits shadow 04:41:57 16° 118° (ESE) 1,346 ? -31.2°
Drops below altitude 10° 04:42:44 10° 121° (ESE) 1,651 ? -31.1°
Sets 04:44:54 0° 126° (SE) 2,528 ? -30.7°
